Lid_Strength_Index
3 3 2 2 2 2 1 1 0 0 1 1 1 2 2 1 2 2 2 3 3 2 2 2 1 2 4 5 5 0 -2 -2 1 2 4 5 5 6 9 9 9 9 8 8 6 6 6
4 3 3 3 3 2 2 2 2 1 1 1 2 2 2 2 2 2 2 3 3 2 2 2 2 2 5 8 1 0 1 2 3 4 4 5 5 6 7 8 9 7 8 9 6 6 6
4 4 4 3 3 3 3 3 2 2 1 1 2 2 2 2 2 2 3 3 3 2 2 2 2 4 5 7 2 2 2 4 4 4 5 4 4 5 6 7 6 6 10 8 7 7 8
4 4 4 4 4 4 4 3 3 3 2 1 1 2 2 2 3 3 3 3 3 2 2 2 2 5 8 1 2 3 3 4 4 4 4 3 3 5 6 6 7 9 10 12 9 7 7
4 4 4 4 4 4 4 4 4 3 2 2 2 2 2 3 3 3 3 3 3 2 2 2 5 5 7 0 2 1 2 3 4 4 4 3 5 6 6 9 11 11 14 11 10 7 7
4 4 4 4 4 4 4 4 4 4 3 2 2 2 2 3 3 4 4 3 3 3 4 3 4 8 5 5 2 2 3 2 4 4 5 6 8 9 10 11 14 13 12 12 12 9 8
4 4 4 4 4 4 4 4 4 4 4 3 3 2 3 3 3 4 5 6 6 7 7 8 8 7 5 3 2 3 3 4 4 6 9 8 11 12 10 10 9 10 10 11 11 9 10
2 3 3 4 4 4 4 4 5 4 4 3 3 3 3 3 3 4 6 7 5 5 8 4 4 5 3 3 6 4 3 6 6 9 8 10 12 9 8 7 9 10 11 11 10 9 10
2 2 3 3 3 4 4 4 4 4 4 4 3 3 3 3 3 5 7 6 3 4 8 6 4 5 4 4 6 5 5 6 7 9 9 11 9 7 7 9 10 10 10 11 11 11 10
2 2 2 2 3 3 4 3 4 4 4 4 3 3 4 5 7 6 6 4 3 4 12 9 7 5 5 5 7 4 4 6 8 9 9 9 8 8 8 9 9 12 8 9 9 11 14
2 2 2 2 2 2 3 3 3 3 3 3 3 3 4 5 6 5 3 3 3 5 19 8 7 3 5 6 6 6 4 6 8 8 9 10 9 9 9 9 8 10 9 9 9 12 13
3 2 2 2 2 3 2 3 3 3 3 3 2 3 4 5 4 5 4 3 3 13 19 10 7 7 7 6 6 6 6 5 6 8 8 10 7 8 8 7 7 8 9 9 11 12 17
3 2 2 2 3 3 3 2 2 2 2 2 1 2 3 2 5 2 2 3 13 17 8 10 9 7 8 8 8 8 8 9 11 12 12 10 10 8 7 9 8 9 11 16 17 18 18
3 2 2 2 3 3 3 3 2 2 2 2 2 2 2 3 2 2 3 9 17 12 11 7 8 8 9 8 8 8 9 11 9 10 12 13 14 9 7 9 11 10 12 16 19 20 17
3 3 2 2 3 3 3 3 3 3 2 1 2 3 2 3 3 2 7 14 14 12 8 9 9 10 10 9 9 9 10 10 9 9 12 13 13 8 7 7 8 11 13 10 15 15 18
3 2 3 3 3 3 3 3 3 2 2 1 3 4 4 2 3 4 9 12 11 8 7 8 11 10 12 10 10 11 10 9 9 8 7 10 14 9 8 7 8 10 9 13 14 19 21
1 2 3 3 3 3 3 4 3 3 2 1 3 6 3 1 3 7 13 12 9 6 7 9 10 10 10 10 10 11 10 9 8 8 7 9 11 12 9 10 10 11 12 12 11 15 18
2 2 2 3 3 3 3 3 3 3 2 3 4 9 2 1 9 9 11 9 8 8 6 8 8 9 10 9 10 10 10 8 6 7 10 9 11 15 12 8 7 9 11 11 17 16 16
2 3 2 2 3 4 4 4 3 3 2 4 7 6 2 2 12 13 10 9 8 8 8 8 9 8 7 9 11 9 9 7 6 7 9 9 12 16 14 11 9 11 10 10 11 15 16
3 3 3 2 2 3 4 4 3 3 2 3 6 10 7 5 7 10 11 10 10 6 8 7 8 8 8 10 8 10 10 8 7 7 7 7 11 13 16 13 11 13 11 11 12 16 16
4 3 3 3 2 2 3 4 3 3 2 3 5 8 7 11 10 9 10 10 11 10 7 7 9 9 9 11 11 11 10 9 8 7 7 9 12 11 11 10 10 11 11 11 12 13 14
4 4 3 3 3 3 2 3 3 3 2 4 7 8 7 9 8 9 10 11 10 9 8 9 10 9 8 10 9 11 10 10 10 9 9 9 13 13 13 11 11 12 11 11 11 11 12
4 4 4 3 3 3 3 2 3 2 1 5 4 3 6 8 9 10 10 10 9 7 7 7 8 8 10 8 7 7 7 7 8 9 10 11 13 15 16 13 13 16 12 11 11 11 11
4 4 4 4 4 3 3 3 2 2 1 3 3 4 8 11 10 10 9 8 8 8 8 7 6 8 7 5 7 8 8 8 8 9 8 12 13 16 17 16 20 11 9 9 10 10 10
4 4 4 4 3 3 3 2 2 2 2 3 2 4 7 12 9 9 8 8 7 7 8 7 7 5 5 7 11 13 14 13 11 9 9 9 13 16 18 18 14 11 10 11 11 12 9
4 4 3 3 3 3 3 2 2 1 2 2 3 2 5 9 10 7 8 7 9 9 9 9 6 5 6 11 14 16 17 14 14 12 9 11 12 15 17 19 20 13 9 8 9 14 8
3 3 3 3 3 3 2 2 2 1 2 2 4 3 5 8 7 6 8 8 6 9 9 9 8 9 7 15 16 16 15 11 15 15 15 16 17 18 21 20 15 10 8 8 15 14 8
3 3 3 2 2 2 2 1 1 1 2 1 4 2 5 7 6 5 5 6 7 7 11 9 9 9 13 13 14 15 16 14 14 12 13 14 16 18 15 18 17 7 9 12 11 8 8
3 3 2 2 2 2 2 1 1 1 1 1 4 2 3 6 6 4 3 3 3 4 7 7 8 8 8 11 13 14 16 16 15 16 10 14 11 14 13 13 8 8 8 6 7 8 8